Overview Statistics Trail Chart Weather Telemetry Raw packets
 

This is the latest recevied weather packets stored in our database for station/object HB9FHL-13. If no packets are shown the sender has not sent any weather packets the latest 10 day(s).

<< 112 113 114 115 116 117 118 >>
Time Temp. Humidity Pressure Rain* Wind** Luminosity Snow
1787960187 17.22° C - 1022.5 hPa 0 mm - - -
1787959886 17.22° C - 1021.8 hPa 0 mm - - -
1787959585 17.22° C - 1020.2 hPa 0 mm - - -
1787959285 17.78° C - 1016.1 hPa 0 mm - - -
1787958983 17.22° C - 1019.3 hPa 0 mm - - -
1787958682 18.89° C - 1017.9 hPa 0 mm - - -
1787958382 18.33° C - 1022.4 hPa 0 mm - - -
1787958084 17.78° C - 1017.4 hPa 0 mm - - -
1787957781 17.22° C - 1021.7 hPa 0 mm - - -
1787957480 17.78° C - 1020.7 hPa 0 mm - - -
1787957180 18.33° C - 1026 hPa 0 mm - - -
1787956879 18.33° C - 1019.1 hPa 0 mm - - -
1787956586 17.78° C - 1015.4 hPa 0 mm - - -
1787956278 18.89° C - 1021.6 hPa 0 mm - - -
1787955977 18.33° C - 1018.8 hPa 0 mm - - -
1787955677 18.33° C - 1022.5 hPa 0 mm - - -
1787955410 18.33° C - 1016.3 hPa 0 mm - - -
1787955377 18.33° C - 1016.3 hPa 0 mm - - -
1787955125 17.78° C - 1022.8 hPa 0 mm - - -
1787955076 17.78° C - 1022.8 hPa 0 mm - - -
1787954822 18.33° C - 1014.8 hPa 0 mm - - -
1787954776 18.33° C - 1014.8 hPa 0 mm - - -
1787954475 18.33° C - 1013.3 hPa 0 mm - - -
1787954227 18.33° C - 1022.2 hPa 0 mm - - -
1787954174 18.33° C - 1022.2 hPa 0 mm - - -

* Rain since midnight (hover to see other rain measurements)
** Current wind speed in m/s (hover to see current wind gust speed)